Stations météo

réclame
Mon MeteoGroup
Lichteiland Goeree, Pays-Bas (6320): Température de l'air & dewpoint: 15.01.2018 13:00:00 - 21.01.2018 13:00:00 (CET)Lichteiland Goeree, Pays-Bas (6320): water temperature: 15.01.2018 13:00:00 - 21.01.2018 13:00:00 (CET)Lichteiland Goeree, Pays-Bas (6320): Vitesse du vent & gusts: 15.01.2018 13:00:00 - 21.01.2018 13:00:00 (CET)Lichteiland Goeree, Pays-Bas (6320): Direction du vent: 15.01.2018 13:00:00 - 21.01.2018 13:00:00 (CET)Lichteiland Goeree, Pays-Bas (6320): reduced air pressure: 15.01.2018 13:00:00 - 21.01.2018 13:00:00 (CET)Lichteiland Goeree, Pays-Bas (6320): visibility: 15.01.2018 13:00:00 - 21.01.2018 13:00:00 (CET)
Date & Time tt [°C] td [°C] tw [°C] ff [km/h] ff [knt] fx [km/h] fx [knt] dd ppp [hPa] vv [km]
21.01.2018 13:00:00 5,8 0,9 6,2 14 8 18 10 WSW 1015,7 23
21.01.2018 12:00:00 5,8 1,3 6,3 13 7 14 8 WSW 1015,8 10
21.01.2018 11:00:00 5,7 1,3 6,4 16 9 22 12 WNW 1015,7 10
21.01.2018 10:00:00 5,7 1,5 6,2 18 10 25 14 WNW 1015,0 20
21.01.2018 09:00:00 5,8 1,6 6,4 18 10 25 14 WNW 1014,5 20
21.01.2018 08:00:00 5,9 0,1 6,4 22 12 29 16 NW 1013,8 26
21.01.2018 07:00:00 5,8 -0,7 6,4 25 14 36 19 NNW 1013,1 28
21.01.2018 06:00:00 5,7 -0,1 6,4 29 16 36 19 NNW 1012,4 27
21.01.2018 05:00:00 5,6 0,1 6,2 34 18 40 21 NNW 1011,6 10
21.01.2018 04:00:00 5,7 0,5 6,0 36 19 43 23 NNW 1010,4 22
21.01.2018 03:00:00 5,9 -0,7 6,1 36 19 47 25 NNW 1009,7 26
21.01.2018 02:00:00 5,9 -0,2 6,2 36 19 47 25 NNW 1008,5 25
21.01.2018 01:00:00 6,1 0,2 6,4 36 19 43 23 NNW 1007,0 21
21.01.2018 00:00:00 5,1 1,2 6,4 36 19 47 25 N 1005,6 11
20.01.2018 23:00:00 5,6 1,9 6,4 29 16 36 19 NNW 1004,6 21
20.01.2018 22:00:00 4,6 1,5 6,4 14 8 22 12 NW 1004,0 20
20.01.2018 21:00:00 4,1 1,7 6,4 24 13 25 14 N 1002,9 10
20.01.2018 20:00:00 3,6 1,8 6,4 18 10 22 12 N 1002,0 16
20.01.2018 19:00:00 4,2 1,5 6,5 4 2 7 4 NNE 1000,8 15
20.01.2018 18:00:00 4,5 2,6 6,4 4 2 7 4 E 1000,1 13
20.01.2018 17:00:00 4,3 2,4 6,4 7 4 18 10 S 999,5 18
20.01.2018 16:00:00 4,3 2,4 6,4 14 8 18 10 S 998,9 21
20.01.2018 15:00:00 4,5 2,4 6,1 18 10 22 12 S 998,7 25
20.01.2018 14:00:00 4,5 2,4 6,1 18 10 29 16 S 999,4 20
20.01.2018 13:00:00 4,7 3,2 6,3 25 14 32 18 SSW 1000,2 14
20.01.2018 12:00:00 4,6 3,2 6,3 29 16 32 18 SSW 1001,6 10
20.01.2018 11:00:00 4,5 3,1 6,4 25 14 32 18 SSW 1002,4 13
20.01.2018 10:00:00 4,3 2,9 6,4 34 18 36 19 SSW 1002,8 10
20.01.2018 09:00:00 4,3 2,2 6,4 29 16 36 19 SSW 1003,2 13
20.01.2018 08:00:00 5,9 1,4 6,4 22 12 29 16 SW 1004,0 18
20.01.2018 07:00:00 6,0 1,4 6,4 25 14 36 19 WSW 1004,8 19
20.01.2018 06:00:00 6,0 1,1 6,4 35 19 43 23 W 1005,1 10
20.01.2018 05:00:00 5,9 1,2 6,4 36 19 43 23 W 1005,7 19
20.01.2018 04:00:00 5,9 0,6 6,4 39 21 43 23 W 1006,6 10
20.01.2018 03:00:00 6,0 0,5 6,3 36 19 43 23 W 1007,2 19
20.01.2018 02:00:00 6,1 0,4 6,3 40 21 50 27 W 1007,3 19
20.01.2018 01:00:00 6,2 0,6 6,4 36 19 47 25 W 1007,7 20
20.01.2018 00:00:00 6,3 -0,2 6,4 46 25 50 27 W 1007,5 10
19.01.2018 23:00:00 6,5 0,5 6,4 40 21 54 29 W 1007,7 20
19.01.2018 22:00:00 6,7 0,7 6,4 40 21 50 27 W 1007,4 20
19.01.2018 21:00:00 5,3 -0,6 6,4 43 23 58 31 W 1007,5 16
19.01.2018 20:00:00 6,1 0,2 6,4 44 24 50 27 W 1007,5 10
19.01.2018 19:00:00 6,3 -0,7 6,4 40 21 47 25 W 1007,5 22
19.01.2018 18:00:00 6,1 0,8 6,4 41 22 47 25 W 1007,5 10
19.01.2018 17:00:00 5,8 0,7 6,4 32 18 43 23 W 1007,4 20
19.01.2018 16:00:00 5,8 1,4 6,5 29 16 47 25 W 1007,5 22
19.01.2018 15:00:00 5,7 0,7 6,4 36 19 43 23 W 1007,5 22
19.01.2018 14:00:00 5,7 0,7 6,4 32 18 40 21 WSW 1007,8 21
19.01.2018 13:00:00 5,5 0,6 6,4 25 14 36 19 WSW 1008,1 22
19.01.2018 12:00:00 5,4 0,7 6,4 29 16 40 21 W 1007,9 29
19.01.2018 11:00:00 5,6 1,3 6,4 37 20 40 21 W 1007,7 10
19.01.2018 10:00:00 5,4 1,5 6,4 41 22 43 23 W 1007,4 10
19.01.2018 09:00:00 5,4 1,2 6,4 41 22 43 23 W 1006,8 10
19.01.2018 08:00:00 5,3 1,4 6,4 41 22 47 25 WNW 1006,3 10
19.01.2018 07:00:00 5,3 0,9 6,4 46 25 50 27 W 1006,1 10
19.01.2018 06:00:00 5,5 1,4 6,4 46 25 50 27 WNW 1005,7 10
19.01.2018 05:00:00 5,6 1,7 6,5 48 26 50 27 WNW 1005,0 10
19.01.2018 04:00:00 5,5 1,8 6,5 44 24 54 29 WNW 1004,7 10
19.01.2018 03:00:00 5,6 2,0 6,4 50 27 54 29 WNW 1004,0 10
19.01.2018 02:00:00 5,6 2,1 6,3 44 24 50 27 WNW 1003,4 10
19.01.2018 01:00:00 6,0 2,3 6,4 41 22 47 25 WNW 1002,8 10
19.01.2018 00:00:00 6,2 2,9 6,4 41 22 43 23 WNW 1002,3 10
18.01.2018 23:00:00 5,9 2,6 6,5 37 20 47 25 NW 1002,1 10
18.01.2018 22:00:00 5,3 2,5 6,5 35 19 43 23 W 1001,6 10
18.01.2018 21:00:00 7,2 2,4 6,4 31 17 32 18 WNW 1001,3 10
18.01.2018 20:00:00 7,3 2,4 6,4 28 15 32 18 W 1001,0 10
18.01.2018 19:00:00 7,3 2,4 6,4 29 16 32 18 W 1000,8 10
18.01.2018 18:00:00 7,0 2,1 6,5 28 15 43 23 WNW 1000,9 10
18.01.2018 17:00:00 6,9 2,0 6,5 37 20 43 23 W 1001,1 10
18.01.2018 16:00:00 6,6 1,6 6,6 41 22 47 25 WNW 1000,9 10
18.01.2018 15:00:00 6,4 1,7 6,5 44 24 54 29 WNW 1000,2 10
18.01.2018 14:00:00 5,9 1,9 6,5 55 30 65 35 WNW 999,8 10
18.01.2018 13:00:00 5,6 1,5 6,4 63 34 68 37 WNW 999,1 10
18.01.2018 12:00:00 5,8 2,2 6,5 70 38 83 45 WNW 998,2 10
18.01.2018 11:00:00 6,0 2,6 6,5 78 42 112 60 WNW 995,5 10
18.01.2018 10:00:00 5,9 1,8 6,5 98 53 122 66 WNW 991,6 5
18.01.2018 09:00:00 7,7 2,2 6,5 102 55 126 68 W 987,5 5
18.01.2018 08:00:00 10,2 4,4 6,5 81 44 97 53 WSW 985,5 8
18.01.2018 07:00:00 9,4 7,1 6,5 78 42 86 47 WSW 986,0 6
18.01.2018 06:00:00 9,1 7,4 6,5 78 42 90 49 SW 987,1 7
18.01.2018 05:00:00 6,6 5,9 6,5 70 38 76 41 SSW 988,7 6
18.01.2018 04:00:00 5,0 3,9 6,4 63 34 68 37 SSW 992,6 7
18.01.2018 03:00:00 4,4 2,7 6,4 61 33 68 37 SSW 996,6 3,8
18.01.2018 02:00:00 5,8 2,1 6,3 50 27 58 31 SW 999,6 5
18.01.2018 01:00:00 6,6 2,0 6,3 48 26 58 31 WSW 1002,2 8
18.01.2018 00:00:00 7,1 2,6 6,4 46 25 58 31 W 1003,9 10
17.01.2018 23:00:00 7,0 1,9 6,4 50 27 58 31 W 1004,8 10
17.01.2018 22:00:00 7,1 0,6 6,4 55 30 61 33 W 1005,6 10
17.01.2018 21:00:00 7,0 0,5 6,5 59 32 65 35 W 1005,6 10
17.01.2018 20:00:00 7,1 -0,2 6,5 65 35 68 37 W 1005,5 10
17.01.2018 19:00:00 7,1 0,5 6,6 55 30 65 35 W 1005,5 10
17.01.2018 18:00:00 6,9 0,9 6,6 61 33 68 37 W 1005,6 10
17.01.2018 17:00:00 6,9 0,5 6,6 59 32 72 39 W 1005,1 10
17.01.2018 16:00:00 6,7 1,0 6,5 65 35 76 41 WNW 1004,3 10
17.01.2018 15:00:00 6,5 0,6 6,4 68 37 83 45 WNW 1003,1 10
17.01.2018 14:00:00 6,2 0,5 6,4 70 38 83 45 WNW 1002,4 10
17.01.2018 13:00:00 6,1 0,3 6,4 76 41 83 45 WNW 1001,8 10
17.01.2018 12:00:00 6,1 0,7 6,4 72 39 79 43 WNW 1000,9 10
17.01.2018 11:00:00 5,8 0,1 6,3 74 40 79 43 WNW 1000,0 10
17.01.2018 10:00:00 5,4 -0,2 6,5 70 38 83 45 WNW 998,8 10
17.01.2018 09:00:00 5,3 0,1 6,5 72 39 79 43 WNW 997,6 10
17.01.2018 08:00:00 5,0 0,2 6,6 68 37 79 43 WNW 996,6 10
17.01.2018 07:00:00 4,7 -1,5 6,6 68 37 79 43 WNW 995,9 10
17.01.2018 06:00:00 4,9 -1,1 6,6 68 37 76 41 WNW 994,9 10
17.01.2018 05:00:00 4,9 -1,3 6,6 70 38 76 41 WNW 993,9 10
17.01.2018 04:00:00 5,1 -1,2 6,6 63 34 68 37 WNW 993,3 10
17.01.2018 03:00:00 5,3 -0,1 6,5 57 31 65 35 WNW 992,6 10
17.01.2018 02:00:00 5,3 -0,4 6,5 57 31 61 33 W 992,2 10
17.01.2018 01:00:00 5,5 0,0 6,5 54 29 61 33 W 991,9 10
17.01.2018 00:00:00 6,1 0,4 6,5 59 32 65 35 W 991,5 10
16.01.2018 23:00:00 6,3 1,9 6,5 55 30 61 33 W 991,4 10
16.01.2018 22:00:00 6,8 1,2 6,5 50 27 58 31 W 991,7 10
16.01.2018 21:00:00 6,9 0,9 6,6 55 30 58 31 W 992,1 10
16.01.2018 20:00:00 7,1 -0,4 6,6 50 27 61 33 W 992,2 10
16.01.2018 19:00:00 6,9 0,2 6,7 52 28 61 33 W 992,4 10
16.01.2018 18:00:00 6,9 0,3 6,7 57 31 61 33 W 993,0 10
16.01.2018 17:00:00 6,8 0,5 6,7 59 32 65 35 W 993,3 10
16.01.2018 16:00:00 6,9 -0,1 6,5 61 33 65 35 W 993,2 10
16.01.2018 15:00:00 6,8 0,4 6,6 52 28 61 33 W 993,3 10
16.01.2018 14:00:00 6,6 0,5 6,6 50 27 65 35 W 993,2 17
16.01.2018 13:00:00 6,5 0,6 6,6 61 33 68 37 W 993,2 10
16.01.2018 12:00:00 6,5 0,1 6,6 63 34 72 39 W 993,2 10
16.01.2018 11:00:00 6,6 1,1 6,6 59 32 72 39 WNW 992,7 10
16.01.2018 10:00:00 6,5 1,3 6,6 54 29 72 39 WNW 991,8 10
16.01.2018 09:00:00 4,7 1,6 6,6 65 35 72 39 WNW 991,1 10
16.01.2018 08:00:00 4,3 2,3 6,6 65 35 76 41 WNW 990,3 10
16.01.2018 07:00:00 7,8 3,2 6,7 57 31 65 35 W 989,7 10
16.01.2018 06:00:00 7,9 3,3 6,7 55 30 61 33 W 989,7 10
16.01.2018 05:00:00 7,7 3,9 6,7 54 29 61 33 W 990,4 10
16.01.2018 04:00:00 7,7 3,9 6,6 57 31 61 33 W 990,8 10
16.01.2018 03:00:00 7,8 4,1 6,6 55 30 61 33 W 991,1 10
16.01.2018 02:00:00 7,8 4,1 6,6 48 26 61 33 W 991,5 10
16.01.2018 01:00:00 7,9 4,0 6,6 50 27 58 31 W 992,2 10
16.01.2018 00:00:00 8,0 3,8 6,7 48 26 54 29 W 992,6 10
15.01.2018 23:00:00 7,9 4,0 6,6 46 25 54 29 W 992,0 10
15.01.2018 22:00:00 8,0 4,0 6,6 46 25 50 27 W 991,2 10
15.01.2018 21:00:00 8,2 5,4 6,5 52 28 61 33 W 991,4 8
15.01.2018 20:00:00 8,9 5,3 6,6 44 24 68 37 W 990,2 10
15.01.2018 19:00:00 8,2 7,2 6,6 52 28 68 37 SW 989,0 8
15.01.2018 18:00:00 7,6 6,4 6,3 63 34 72 39 SSW 989,1 6
15.01.2018 17:00:00 6,7 5,6 6,6 65 35 72 39 SSW 989,7 8
15.01.2018 16:00:00 6,5 5,3 6,6 59 32 72 39 SSW 991,3 3,9
15.01.2018 15:00:00 6,7 5,0 6,6 72 39 76 41 SSW 993,3 7
15.01.2018 14:00:00 6,2 4,8 6,6 70 38 79 43 SSW 995,3 9
15.01.2018 13:00:00 6,2 4,4 6,7 58 31 72 39 S 997,7 12

tt = Température de l'air
td = dewpoint
tw = water temperature
ff = Vitesse du vent
fx = gusts
dd = Direction du vent
ppp = reduced air pressure
vv = visibility

stations d'obs. à proximité